Weather History for Kalispell, MT

Change the Weather History Date:

Tuesday, March 5, 2013

  Actual Average Record
Temperature  
Mean Temperature 28 °F 32 °F  
Max Temperature 37 °F 41 °F 63 °F (1968)
Min Temperature 19 °F 22 °F -17 °F (1955)
Degree Days  
Heating Degree Days 37 34  
Month to date heating degree days 157 172  
Since 1 July heating degree days 5444 6024  
Cooling Degree Days 0 0  
Month to date cooling degree days 0 0  
Year to date cooling degree days 0 0  
Moisture  
Dew Point 16 °F    
Average Humidity 59    
Maximum Humidity 77    
Minimum Humidity 40    
Precipitation  
Precipitation T in 0.03 in 0.58 in (1932)
Month to date precipitation 0.14 0.18  
Year to date precipitation 1.19 2.48  
Snow  
Snow T in - - ()
Month to date snowfall 0.5  
Year to date snowfall 8.0  
Since 1 July snowfall 16.8  
Snow Depth 0.00 in    
Sea Level Pressure  
Sea Level Pressure 30.13 in    
Wind  
Wind Speed 7 mph (North)    
Max Wind Speed 18 mph    
Max Gust Speed 23 mph    
Visibility 10 miles    
Events      
T = Trace of Precipitation, MM = Missing Value Source: NWS Daily Summary

Daily Weather History Graph

Daily Weather History Graph

Search for Another Location

Airport:

Trip Planner

Search our weather history database for the weather conditions in past years. The results will help you decide how hot, cold, wet, or windy it might be!

Date:

Astronomy

Mar. 05, 2013 Rise Set
Actual Time 7:09 AM MST 6:27 PM MST
Civil Twilight 6:38 AM MST 6:59 PM MST
Nautical Twilight 6:02 AM MST 7:35 PM MST
Astronomical Twilight 5:26 AM MST 8:11 PM MST
Moon 2:47 AM MST (3/5) 11:50 AM MST (3/5)
Length of Visible Light 12h 20m
Length of Day
11h 18m
Last Quarter, 40% of the Moon is Illuminated
Mar 5
Last Quarter
Mar 11
New
Mar 19
First Quarter
Mar 27
Full
Apr 2
Last Quarter

Hourly Weather History & Observations

Time (MST) Temp. Windchill Dew Point Humidity Pressure Visibility Wind Dir Wind Speed Gust Speed Precip Events Conditions
12:55 AM 21.0 °F - 16.0 °F 81% 30.24 in 10.0 mi Calm Calm - N/A   Clear
1:55 AM 21.0 °F 16.2 °F 16.0 °F 81% 30.24 in 10.0 mi Variable 3.5 mph - N/A   Clear
2:55 AM 21.9 °F 12.5 °F 16.0 °F 78% 30.24 in 10.0 mi North 8.1 mph - N/A   Clear
3:55 AM 21.0 °F 11.4 °F 14.0 °F 74% 30.22 in 10.0 mi NNE 8.1 mph - N/A   Clear
4:55 AM 21.0 °F 9.9 °F 14.0 °F 74% 30.23 in 10.0 mi NNE 10.4 mph - N/A   Clear
5:55 AM 19.9 °F 8.6 °F 12.9 °F 74% 30.23 in 10.0 mi North 10.4 mph - N/A   Clear
6:55 AM 19.9 °F 7.3 °F 12.0 °F 71% 30.22 in 10.0 mi NNE 12.7 mph - N/A   Clear
7:55 AM 21.0 °F 10.6 °F 12.0 °F 68% 30.24 in 10.0 mi North 9.2 mph - N/A   Clear
8:55 AM 23.0 °F 9.6 °F 12.0 °F 63% 30.23 in 10.0 mi NNE 16.1 mph 23.0 mph N/A   Clear
9:55 AM 27.0 °F 15.2 °F 12.9 °F 56% 30.21 in 10.0 mi NNE 15.0 mph - N/A   Mostly Cloudy
10:55 AM 28.9 °F 19.2 °F 12.9 °F 51% 30.19 in 10.0 mi NE 11.5 mph - N/A   Clear
11:55 AM 33.1 °F 26.1 °F 14.0 °F 46% 30.16 in 10.0 mi NNE 8.1 mph - N/A   Clear
12:55 PM 34.0 °F - 14.0 °F 44% 30.13 in 10.0 mi Calm Calm - N/A   Clear
1:55 PM 35.1 °F 32.2 °F 14.0 °F 42% 30.10 in 10.0 mi NNE 3.5 mph - N/A   Overcast
2:55 PM 37.0 °F 34.5 °F 15.1 °F 41% 30.07 in 10.0 mi NE 3.5 mph - N/A   Overcast
3:55 PM 37.0 °F 34.5 °F 16.0 °F 42% 30.05 in 10.0 mi NW 3.5 mph - N/A   Overcast
4:55 PM 37.0 °F 32.4 °F 17.1 °F 44% 30.03 in 10.0 mi NNE 5.8 mph - N/A   Mostly Cloudy
5:55 PM 36.0 °F 33.3 °F 18.0 °F 48% 30.03 in 10.0 mi WNW 3.5 mph - N/A   Overcast
6:55 PM 34.0 °F 31.0 °F 18.0 °F 52% 30.03 in 10.0 mi Variable 3.5 mph - N/A   Overcast
7:55 PM 34.0 °F 31.0 °F 18.0 °F 52% 30.04 in 10.0 mi SW 3.5 mph - N/A   Overcast
8:55 PM 33.1 °F - 23.0 °F 66% 30.03 in 10.0 mi North - - N/A   Overcast
9:55 PM 33.1 °F 27.7 °F 23.0 °F 66% 30.00 in 10.0 mi NNW 5.8 mph - 0.00 in   Overcast
10:55 PM 32.0 °F - 24.1 °F 73% 29.99 in 10.0 mi Calm Calm - N/A   Overcast
11:55 PM 30.9 °F 26.2 °F 24.1 °F 76% 29.98 in 10.0 mi NNW 4.6 mph - N/A   Overcast